| time (UTC) | temp F | wind direction | speed MPH | gust MPH | rain 1hr in | rain 24hr in | rain mn in | humidity % | barometer mb |
| 20260504184904 | 79 | 234 | 4.0 | 14.0 | 0.00 | 0.00 | 0.00 | 43 | 1012.1 |
| 20260504184405 | 79 | 241 | 4.0 | 10.0 | 0.00 | 0.00 | 0.00 | 44 | 1012.3 |
| 20260504183904 | 78 | 240 | 9.0 | 16.0 | 0.00 | 0.00 | 0.00 | 44 | 1012.1 |
| 20260504183404 | 79 | 248 | 4.0 | 15.0 | 0.00 | 0.00 | 0.00 | 45 | 1012.2 |
| 20260504182904 | 79 | 286 | 4.0 | 12.0 | 0.00 | 0.00 | 0.00 | 46 | 1012.2 |
| 20260504182404 | 78 | 236 | 7.0 | 20.0 | 0.00 | 0.00 | 0.00 | 45 | 1012.2 |
| 20260504181404 | 78 | 212 | 9.0 | 20.0 | 0.00 | 0.00 | 0.00 | 44 | 1012.4 |
| 20260504180905 | 78 | 244 | 7.0 | 26.0 | 0.00 | 0.00 | 0.00 | 44 | 1012.4 |
| 20260504175904 | 77 | 244 | 7.0 | 14.0 | 0.00 | 0.00 | 0.00 | 43 | 1012.3 |
| 20260504175404 | 78 | 245 | 6.0 | 16.0 | 0.00 | 0.00 | 0.00 | 45 | 1012.4 |
| 20260504174904 | 78 | 232 | 5.0 | 15.0 | 0.00 | 0.00 | 0.00 | 45 | 1012.5 |
| 20260504174404 | 77 | 255 | 9.0 | 18.0 | 0.00 | 0.00 | 0.00 | 43 | 1012.7 |
| 20260504173904 | 77 | 217 | 9.0 | 18.0 | 0.00 | 0.00 | 0.00 | 43 | 1012.6 |
| 20260504173404 | 78 | 221 | 9.0 | 16.0 | 0.00 | 0.00 | 0.00 | 45 | 1012.7 |
| 20260504172905 | 77 | 218 | 9.0 | 20.0 | 0.00 | 0.00 | 0.00 | 47 | 1012.7 |
| 20260504172403 | 78 | 275 | 7.0 | 14.0 | 0.00 | 0.00 | 0.00 | 47 | 1012.9 |
| 20260504171904 | 78 | 275 | 4.0 | 10.0 | 0.00 | 0.00 | 0.00 | 48 | 1012.9 |
| 20260504171404 | 77 | 278 | 4.0 | 15.0 | 0.00 | 0.00 | 0.00 | 48 | 1012.9 |
| 20260504170904 | 77 | 240 | 6.0 | 13.0 | 0.00 | 0.00 | 0.00 | 47 | 1013.1 |
| 20260504170404 | 76 | 265 | 9.0 | 18.0 | 0.00 | 0.00 | 0.00 | 46 | 1013.1 |
| 20260504160404 | 74 | 216 | 5.0 | 12.0 | 0.00 | 0.00 | 0.00 | 53 | 1013.9 |
| 20260504150404 | 72 | 251 | 5.0 | 12.0 | 0.00 | 0.00 | 0.00 | 57 | 1014.2 |
| 20260504140904 | 67 | 231 | 3.0 | 12.0 | 0.00 | 0.00 | 0.00 | 63 | 1014.1 |
| 20260504140404 | 67 | 223 | 4.0 | 9.0 | 0.00 | 0.00 | 0.00 | 62 | 1014.1 |
| 20260504130404 | 64 | 207 | 5.0 | 12.0 | 0.00 | 0.00 | 0.00 | 66 | 1014.5 |
| 20260504110404 | 59 | 223 | 3.0 | 12.0 | 0.00 | 0.00 | 0.00 | 68 | 1013.6 |
| 20260504100404 | 59 | 223 | 5.0 | 13.0 | 0.00 | 0.00 | 0.00 | 66 | 1013.8 |
| 20260504081904 | 60 | 207 | 5.0 | 10.0 | 0.00 | 0.00 | 0.00 | 61 | 1014.1 |
| 20260504081404 | 60 | 210 | 4.0 | 10.0 | 0.00 | 0.00 | 0.00 | 61 | 1014.1 |
| 20260504080904 | 60 | 207 | 6.0 | 12.0 | 0.00 | 0.00 | 0.00 | 61 | 1014.1 |
| 20260504080404 | 60 | 210 | 5.0 | 10.0 | 0.00 | 0.00 | 0.00 | 60 | 1014.1 |
| 20260504070403 | 61 | 216 | 3.0 | 9.0 | 0.00 | 0.00 | 0.00 | 58 | 1014.6 |
| 20260504050404 | 60 | 194 | 3.0 | 6.0 | 0.00 | 0.00 | 0.00 | 56 | 1015.5 |
| 20260504045405 | 60 | 198 | 4.0 | 8.0 | 0.00 | 0.00 | 0.00 | 56 | 1015.6 |
| 20260504044904 | 60 | 210 | 3.0 | 8.0 | 0.00 | 0.00 | 0.00 | 56 | 1015.6 |
| 20260504044404 | 61 | 203 | 2.0 | 7.0 | 0.00 | 0.00 | 0.00 | 55 | 1015.7 |
| 20260504043404 | 61 | 218 | 3.0 | 9.0 | 0.00 | 0.00 | 0.00 | 55 | 1015.7 |
| 20260504042904 | 61 | 208 | 3.0 | 7.0 | 0.00 | 0.00 | 0.00 | 54 | 1015.7 |
| 20260504042404 | 61 | 210 | 5.0 | 8.0 | 0.00 | 0.00 | 0.00 | 54 | 1015.7 |
| 20260504041903 | 61 | 214 | 3.0 | 6.0 | 0.00 | 0.00 | 0.00 | 54 | 1015.8 |
| 20260504041403 | 61 | 218 | 3.0 | 7.0 | 0.00 | 0.00 | 0.00 | 54 | 1015.7 |
| 20260504040904 | 61 | 203 | 5.0 | 8.0 | 0.00 | 0.00 | 0.00 | 54 | 1015.8 |
| 20260504040404 | 61 | 215 | 5.0 | 10.0 | 0.00 | 0.00 | 0.00 | 53 | 1015.8 |
| 20260504035904 | 61 | 217 | 6.0 | 12.0 | 0.00 | 0.00 | 0.00 | 53 | 1015.9 |
| 20260504035404 | 61 | 204 | 5.0 | 9.0 | 0.00 | 0.00 | 0.00 | 53 | 1016.0 |
| 20260504034904 | 62 | 207 | 5.0 | 10.0 | 0.00 | 0.00 | 0.00 | 52 | 1016.0 |
| 20260504034404 | 62 | 198 | 4.0 | 12.0 | 0.00 | 0.00 | 0.00 | 52 | 1016.0 |
| 20260504033904 | 62 | 215 | 4.0 | 8.0 | 0.00 | 0.00 | 0.00 | 52 | 1016.0 |
| 20260504033404 | 62 | 198 | 4.0 | 8.0 | 0.00 | 0.00 | 0.00 | 51 | 1016.0 |
| 20260504031904 | 62 | 202 | 5.0 | 9.0 | 0.00 | 0.00 | 0.00 | 50 | 1016.0 |
| 20260504031404 | 63 | 204 | 5.0 | 9.0 | 0.00 | 0.00 | 0.00 | 49 | 1016.0 |
| 20260504030904 | 63 | 209 | 5.0 | 10.0 | 0.00 | 0.00 | 0.00 | 49 | 1016.0 |
| 20260504025904 | 63 | 201 | 6.0 | 9.0 | 0.00 | 0.00 | 0.00 | 49 | 1016.1 |
| 20260504025404 | 63 | 213 | 5.0 | 9.0 | 0.00 | 0.00 | 0.00 | 48 | 1016.1 |
| 20260504023904 | 63 | 218 | 5.0 | 9.0 | 0.00 | 0.00 | 0.00 | 49 | 1015.9 |
| 20260504023404 | 63 | 209 | 5.0 | 9.0 | 0.00 | 0.00 | 0.00 | 49 | 1016.0 |
| 20260504022904 | 63 | 224 | 5.0 | 9.0 | 0.00 | 0.00 | 0.00 | 49 | 1016.1 |
| 20260504022403 | 63 | 205 | 4.0 | 8.0 | 0.00 | 0.00 | 0.00 | 49 | 1016.1 |
| 20260504021904 | 63 | 198 | 3.0 | 7.0 | 0.00 | 0.00 | 0.00 | 49 | 1016.1 |
| 20260504021404 | 63 | 209 | 3.0 | 8.0 | 0.00 | 0.00 | 0.00 | 48 | 1016.1 |
| 20260504020903 | 63 | 199 | 4.0 | 10.0 | 0.00 | 0.00 | 0.00 | 49 | 1016.0 |
| 20260504020403 | 62 | 212 | 4.0 | 9.0 | 0.00 | 0.00 | 0.00 | 50 | 1016.0 |
| 20260504015904 | 62 | 207 | 4.0 | 8.0 | 0.00 | 0.00 | 0.00 | 50 | 1016.1 |
| 20260504015404 | 63 | 221 | 3.0 | 5.0 | 0.00 | 0.00 | 0.00 | 50 | 1016.1 |
| 20260504014403 | 62 | 206 | 3.0 | 5.0 | 0.00 | 0.00 | 0.00 | 51 | 1015.9 |
| 20260504013904 | 62 | 207 | 2.0 | 5.0 | 0.00 | 0.00 | 0.00 | 50 | 1015.8 |
| 20260504013404 | 62 | 225 | 2.0 | 5.0 | 0.00 | 0.00 | 0.00 | 51 | 1015.8 |
| 20260504012904 | 62 | 199 | 2.0 | 5.0 | 0.00 | 0.00 | 0.00 | 51 | 1015.9 |
| 20260504012404 | 63 | 196 | 2.0 | 3.0 | 0.00 | 0.00 | 0.00 | 50 | 1015.8 |
| 20260504011403 | 63 | 201 | 2.0 | 3.0 | 0.00 | 0.00 | 0.00 | 49 | 1015.9 |
| 20260504010904 | 63 | 202 | 1.0 | 3.0 | 0.00 | 0.00 | 0.00 | 48 | 1015.9 |
| 20260504010404 | 64 | 202 | 2.0 | 3.0 | 0.00 | 0.00 | 0.00 | 48 | 1015.9 |
| 20260504005904 | 64 | 202 | 2.0 | 5.0 | 0.00 | 0.00 | 0.00 | 48 | 1015.9 |
| 20260504005404 | 64 | 223 | 2.0 | 3.0 | 0.00 | 0.00 | 0.00 | 48 | 1015.9 |
| 20260504004404 | 65 | 209 | 2.0 | 3.0 | 0.00 | 0.00 | 0.00 | 46 | 1015.8 |
| 20260504003404 | 66 | 207 | 2.0 | 5.0 | 0.00 | 0.00 | 0.00 | 45 | 1015.7 |
| 20260504002903 | 66 | 209 | 2.0 | 5.0 | 0.00 | 0.00 | 0.00 | 44 | 1015.8 |
| 20260504002404 | 66 | 219 | 3.0 | 6.0 | 0.00 | 0.00 | 0.00 | 44 | 1015.8 |
| 20260504001904 | 67 | 213 | 2.0 | 5.0 | 0.00 | 0.00 | 0.00 | 43 | 1015.9 |
| 20260504001404 | 67 | 221 | 3.0 | 5.0 | 0.00 | 0.00 | 0.00 | 43 | 1015.8 |
| 20260504000404 | 68 | 189 | 2.0 | 7.0 | 0.00 | 0.00 | 0.00 | 41 | 1015.9 |
| 20260503235903 | 68 | 210 | 2.0 | 5.0 | 0.00 | 0.00 | 0.00 | 41 | 1015.9 |
| 20260503235404 | 68 | 231 | 3.0 | 7.0 | 0.00 | 0.00 | 0.00 | 40 | 1015.9 |
| 20260503234904 | 68 | 257 | 3.0 | 5.0 | 0.00 | 0.00 | 0.00 | 41 | 1016.0 |
| 20260503232903 | 69 | 203 | 6.0 | 12.0 | 0.00 | 0.00 | 0.00 | 38 | 1016.2 |
| 20260503232403 | 69 | 225 | 2.0 | 10.0 | 0.00 | 0.00 | 0.00 | 38 | 1016.2 |
| 20260503231904 | 69 | 221 | 4.0 | 9.0 | 0.00 | 0.00 | 0.00 | 38 | 1016.2 |
| 20260503231404 | 69 | 263 | 3.0 | 12.0 | 0.00 | 0.00 | 0.00 | 37 | 1016.3 |
| 20260503230904 | 69 | 311 | 2.0 | 10.0 | 0.00 | 0.00 | 0.00 | 39 | 1016.3 |
| 20260503225904 | 70 | 222 | 5.0 | 10.0 | 0.00 | 0.00 | 0.00 | 37 | 1016.3 |
| 20260503225403 | 70 | 258 | 5.0 | 12.0 | 0.00 | 0.00 | 0.00 | 36 | 1016.3 |
| 20260503224404 | 70 | 250 | 3.0 | 7.0 | 0.00 | 0.00 | 0.00 | 38 | 1016.4 |
| 20260503223904 | 70 | 263 | 4.0 | 9.0 | 0.00 | 0.00 | 0.00 | 37 | 1016.5 |
| 20260503223404 | 70 | 248 | 5.0 | 10.0 | 0.00 | 0.00 | 0.00 | 37 | 1016.6 |
| 20260503222903 | 71 | 203 | 4.0 | 9.0 | 0.00 | 0.00 | 0.00 | 37 | 1016.5 |
| 20260503221403 | 71 | 252 | 3.0 | 10.0 | 0.00 | 0.00 | 0.00 | 36 | 1016.7 |
| 20260503220903 | 71 | 207 | 3.0 | 10.0 | 0.00 | 0.00 | 0.00 | 38 | 1016.8 |
| 20260503220404 | 71 | 186 | 6.0 | 9.0 | 0.00 | 0.00 | 0.00 | 38 | 1016.7 |
| 20260503215904 | 71 | 202 | 5.0 | 8.0 | 0.00 | 0.00 | 0.00 | 37 | 1016.8 |
| 20260503214904 | 71 | 201 | 3.0 | 12.0 | 0.00 | 0.00 | 0.00 | 38 | 1017.0 |
| 20260503214404 | 71 | 294 | 5.0 | 10.0 | 0.00 | 0.00 | 0.00 | 38 | 1017.2 |
| 20260503213903 | 71 | 218 | 3.0 | 8.0 | 0.00 | 0.00 | 0.00 | 38 | 1017.2 |
| 20260503213403 | 71 | 253 | 1.0 | 12.0 | 0.00 | 0.00 | 0.00 | 40 | 1017.3 |
| 20260503212903 | 70 | 214 | 6.0 | 12.0 | 0.00 | 0.00 | 0.00 | 37 | 1017.4 |
| 20260503212404 | 71 | 235 | 6.0 | 12.0 | 0.00 | 0.00 | 0.00 | 38 | 1017.5 |
| 20260503211904 | 71 | 290 | 5.0 | 12.0 | 0.00 | 0.00 | 0.00 | 38 | 1017.6 |
| 20260503211403 | 71 | 223 | 6.0 | 12.0 | 0.00 | 0.00 | 0.00 | 37 | 1017.7 |
| 20260503210903 | 71 | 285 | 4.0 | 12.0 | 0.00 | 0.00 | 0.00 | 38 | 1017.9 |
| 20260503210403 | 71 | 221 | 4.0 | 12.0 | 0.00 | 0.00 | 0.00 | 38 | 1018.0 |
| 20260503205904 | 71 | 250 | 4.0 | 12.0 | 0.00 | 0.00 | 0.00 | 38 | 1018.1 |
| 20260503205403 | 71 | 252 | 6.0 | 12.0 | 0.00 | 0.00 | 0.00 | 39 | 1018.1 |
| 20260503204904 | 71 | 216 | 5.0 | 9.0 | 0.00 | 0.00 | 0.00 | 38 | 1018.2 |
| 20260503204404 | 71 | 238 | 3.0 | 8.0 | 0.00 | 0.00 | 0.00 | 38 | 1018.2 |
| 20260503203903 | 71 | 287 | 3.0 | 12.0 | 0.00 | 0.00 | 0.00 | 38 | 1018.4 |
| 20260503203404 | 71 | 272 | 7.0 | 12.0 | 0.00 | 0.00 | 0.00 | 37 | 1018.5 |
| 20260503202904 | 71 | 276 | 6.0 | 12.0 | 0.00 | 0.00 | 0.00 | 39 | 1018.6 |
| 20260503202403 | 71 | 298 | 4.0 | 13.0 | 0.00 | 0.00 | 0.00 | 38 | 1018.7 |
| 20260503201903 | 70 | 216 | 2.0 | 3.0 | 0.00 | 0.00 | 0.00 | 38 | 1018.8 |
| 20260503201404 | 71 | 217 | 3.0 | 5.0 | 0.00 | 0.00 | 0.00 | 40 | 1018.9 |
| 20260503200905 | 71 | 300 | 3.0 | 8.0 | 0.00 | 0.00 | 0.00 | 40 | 1019.1 |
| 20260503200405 | 71 | 283 | 7.0 | 12.0 | 0.00 | 0.00 | 0.00 | 39 | 1019.2 |
| 20260503195905 | 70 | 217 | 3.0 | 8.0 | 0.00 | 0.00 | 0.00 | 39 | 1019.2 |
| 20260503195405 | 70 | 188 | 3.0 | 8.0 | 0.00 | 0.00 | 0.00 | 40 | 1019.3 |
| 20260503194905 | 70 | 249 | 5.0 | 10.0 | 0.00 | 0.00 | 0.00 | 37 | 1019.4 |
| 20260503194405 | 70 | 219 | 6.0 | 12.0 | 0.00 | 0.00 | 0.00 | 37 | 1019.5 |
| 20260503193905 | 70 | 199 | 8.0 | 14.0 | 0.00 | 0.00 | 0.00 | 37 | 1019.4 |
| 20260503193405 | 70 | 302 | 5.0 | 12.0 | 0.00 | 0.00 | 0.00 | 39 | 1019.5 |
| 20260503192905 | 70 | 226 | 6.0 | 17.0 | 0.00 | 0.00 | 0.00 | 40 | 1019.6 |
| 20260503191905 | 69 | 206 | 5.0 | 12.0 | 0.00 | 0.00 | 0.00 | 42 | 1019.9 |
| 20260503191405 | 68 | 216 | 5.0 | 10.0 | 0.00 | 0.00 | 0.00 | 39 | 1020.0 |
| 20260503190905 | 69 | 186 | 5.0 | 9.0 | 0.00 | 0.00 | 0.00 | 44 | 1020.0 |
| 20260503190405 | 68 | 191 | 8.0 | 14.0 | 0.00 | 0.00 | 0.00 | 41 | 1020.2 |
| 20260503185905 | 68 | 221 | 3.0 | 7.0 | 0.00 | 0.00 | 0.00 | 38 | 1020.3 |
| 20260503185405 | 69 | 290 | 4.0 | 9.0 | 0.00 | 0.00 | 0.00 | 41 | 1020.4 |